Regional Weather Roundup
Issued by NWS

Home | Current Version | Previous Version | Graphics & Text | Print | Product List | Glossary On
Versions: 1 2 3 4 5 6 7 8 9 10 11 12 13 14 15 16 17 18 19 20 21 22 23 24 25 26 27 28 29 30 31 32 33 34 35 36 37 38 39 40 41 42 43 44 45 46 47 48 49 50
816
ASUS43 KBIS 272210
RWRND

NORTH DAKOTA REGIONAL WEATHER ROUNDUP
NATIONAL WEATHER SERVICE BISMARCK ND
500 PM CDT MON MAR 27 2017

NOTE: "FAIR" INDICATES FEW OR NO CLOUDS BELOW 12,000 FEET WITH NO
SIGNIFICANT WEATHER AND/OR OBSTRUCTIONS TO VISIBILITY.


NDZ001>003-009>011-017-272300-
NORTHWEST NORTH DAKOTA

CITY           SKY/WX    TMP DP  RH WIND       PRES   REMARKS
WILLISTON      FAIR      59  33  37 E14       29.88F
MINOT          CLOUDY    41  37  86 N10       29.95S
MINOT AFB      FOG       37  36  93 N9        29.96R VSB 3/4
$$

NDZ018>021-031>035-040>046-272300-
SOUTHWEST NORTH DAKOTA

CITY           SKY/WX    TMP DP  RH WIND       PRES   REMARKS
BISMARCK       FAIR      64  28  25 S7        29.89F
DICKINSON      CLOUDY    58  24  27 E8        29.84S
GARRISON         N/A     56  41  57 NE10      29.89S
HETTINGER ARPT SUNNY     60  27  28 E10       29.87S
$$

NDZ004>008-012>016-024-026-027-054-272300-
NORTHEAST NORTH DAKOTA

CITY           SKY/WX    TMP DP  RH WIND       PRES   REMARKS
GRAND FORKS    CLOUDY    44  40  85 CALM      30.00S
GRND FRKS AFB  CLOUDY    44  40  87 N6        30.01R
DEVILS LAKE    PTSUNNY   54  41  61 E7        29.95S
$$

NDZ022-023-025-028>030-036>039-047>053-272300-
SOUTHEAST NORTH DAKOTA

CITY           SKY/WX    TMP DP  RH WIND       PRES   REMARKS
FARGO          MOSUNNY   57  45  64 N7        29.96S
JAMESTOWN      FAIR      58  38  47 S7        29.92S
$$





USA.gov is the U.S. government's official web portal to all federal, state and local government web resources and services.